Regional Weather Roundup
Issued by NWS

Home | Current Version | Previous Version | Graphics & Text | Print | Product List | Glossary On
Versions: 1 2 3 4 5 6 7 8 9 10 11 12 13 14 15 16 17 18 19 20 21 22 23 24 25 26 27 28 29 30 31 32 33 34 35 36 37 38 39 40 41 42 43 44 45 46 47 48 49 50
071
ASUS45 KTFX 031310
RWRMT
MONTANA REGIONAL WEATHER ROUNDUP
NATIONAL WEATHER SERVICE GREAT FALLS MT
700 AM MDT TUE MAY 03 2016

NOTE: "FAIR" INDICATES FEW OR NO CLOUDS BELOW 12000 FEET WITH NO
SIGNIFICANT WEATHER AND/OR OBSTRUCTIONS TO VISIBILITY.

MTZ001>007-043-031400-
WEST OF THE DIVIDE

CITY           SKY/WX    TMP DP  RH WIND       PRES   REMARKS
KALISPELL        N/A     38  38 100 NW3       30.14R
MISSOULA         N/A     41  35  79 CALM      30.19R
BUTTE            N/A     30  25  81 CALM      30.24R
MULLAN PASS      N/A     53  29  39 CALM      30.21S
$$

MTZ008-052>055-031400-
SOUTHWEST MONTANA

CITY           SKY/WX    TMP DP  RH WIND       PRES   REMARKS
BOZEMAN          N/A     37  30  75 S7        30.22R WCI  32
DILLON           N/A     39  28  64 S8        30.22R
ENNIS          CLEAR     32  25  74 CALM      30.29S
$$

MTZ009-010-012-014-046-048-049-054-031400-
EAST SLOPES AND CENTRAL MONTANA

CITY           SKY/WX    TMP DP  RH WIND       PRES   REMARKS
CUT BANK         N/A     42  33  70 CALM      30.11R
GREAT FALLS      N/A     41  35  79 SW6       30.12R
MALMSTROM AFB    N/A     43  37  80 SW5       30.12R
HELENA           N/A     43  30  60 W3        30.19R
$$

MTZ011-013-016-021-045-047-050-051-031400-
NORTH CENTRAL MONTANA

CITY           SKY/WX    TMP DP  RH WIND       PRES   REMARKS
HAVRE            N/A     43  41  93 CALM      30.10R
LEWISTOWN        N/A     43  33  68 SE8       30.15R
N BAR RANCH      N/A     45  30  57 W9        30.18R
$$

MTZ017>020-022>027-061-062-031400-
NORTHEAST MONTANA

CITY           SKY/WX    TMP DP  RH WIND       PRES   REMARKS
GLASGOW          N/A     46  40  79 NW6       30.07R
JORDAN           N/A     47  41  80 NW6       30.09R
SIDNEY           N/A     43  36  75 S5        30.07R
WOLF POINT       N/A     44  39  82 CALM      30.08R
$$

MTZ028>42-056>058-031400-
SOUTHCENTRAL AND SOUTHEAST MONTANA

CITY           SKY/WX    TMP DP  RH WIND       PRES   REMARKS
BAKER            N/A     43  37  79 CALM      30.09R
BILLINGS         N/A     47  35  63 SW12      30.16R
LIVINGSTON       N/A     36  29  75 CALM      30.19R
MILES CITY       N/A     49  42  77 SW6       30.09R
$$

REGIONAL REPORTS...DAKOTAS

CITY           SKY/WX    TMP DP  RH WIND       PRES   REMARKS
WILLISTON        N/A     46  38  73 CALM      30.05R
MINOT            N/A     59  31  34 W15       29.97R
DICKINSON        N/A     45  37  73 W7        30.03R
BISMARCK         N/A     47  40  76 W7        30.01S
GRAND FORKS    PTSUNNY   57  38  48 W15       29.84F
FARGO            N/A     50  40  68 SW12      29.91S
BUFFALO SD       N/A     41  33  73 W5        30.01R
RAPID CITY       N/A     45  34  65 NW9       30.09R
$$

REGIONAL REPORTS...WYOMING/IDAHO/WASHINGTON

CITY           SKY/WX    TMP DP  RH WIND       PRES   REMARKS
GILLETTE         N/A     48  36  63 W14       30.15R
SHERIDAN         N/A     43  36  76 CALM      30.17R
BUFFALO WY       N/A     49  33  54 W6        30.20
CODY             N/A     46  28  49 SW3       30.20R
YELLOWSTONE LA   N/A     25  21  85 CALM      30.36R
IDAHO FALLS      N/A     35  26  69 N6        30.25R WCI  30
SALMON           N/A     36  27  69 CALM      30.23R
BOISE            N/A     53  31  42 SE8       30.12R
SPOKANE          N/A     52  43  71 E3        30.07S
$$

REGIONAL REPORTS...ALBERTA

CITY           SKY/WX    TMP DP  RH WIND       PRES   REMARKS
EDMONTON       CLEAR     59  36  41 S6        29.95R
CALGARY        PTCLDY    50  34  53 S3        30.04R
LETHBRIDGE     PTCLDY    46  34  61 CALM      30.05R
MEDICINE HAT   PTCLDY    48  41  76 S5        30.05R
WATERTON GATE    N/A     54  32  43 SW13        N/A
MILK RIVER       N/A     41  36  81 W2          N/A
$$

REGIONAL REPORTS...SASKATCHEWAN

CITY           SKY/WX    TMP DP  RH WIND       PRES   REMARKS
SWIFT CURRENT  SUNNY     54  39  58 SW8       30.06R
REGINA         SUNNY     50  34  53 CALM      30.04R
SASKATOON      MOSUNNY   54  45  71 SE6       30.05R
CYPRESS HILLS    N/A     57  34  41 W3          N/A
VAL MARIE        N/A     43  36  75 E2          N/A
ROCKGLEN         N/A     59  36  41 NW7         N/A
ASSINIBOIA       N/A     48  41  76 S7          N/A
$$




USA.gov is the U.S. government's official web portal to all federal, state and local government web resources and services.